Cloud_Cover
60 19 93 5 5 5 66 12 70 12 5 5 6 5 13 5 0 5 5 0 0 0 0 0 2 1 0 0 0 0 0 0 0 0 0 0 0 4 5 5 5 5 5 5
68 48 9 12 13 85 89 7 38 5 5 18 98 37 39 10 12 5 5 5 5 5 5 5 0 0 0 0 6 3 2 4 0 0 0 0 4 5 5 5 5 5 5 6
97 100 100 100 100 100 100 5 5 5 5 5 36 100 96 43 67 8 28 9 5 7 7 38 5 4 16 5 63 99 100 93 53 13 5 5 4 5 5 5 5 41 50 39
93 100 100 93 98 75 9 5 5 5 20 6 5 70 57 5 17 35 33 41 99 60 85 62 5 42 100 97 22 100 80 5 16 40 47 13 5 15 49 6 13 70 93 81
100 98 41 5 5 5 5 2 5 5 1 5 54 5 92 8 88 51 69 100 100 100 100 83 99 100 100 100 100 100 46 5 3 0 1 5 47 59 24 63 100 100 100 100
6 5 9 5 3 4 5 4 3 4 5 5 5 4 58 18 93 32 100 100 100 100 100 100 100 100 98 90 49 10 5 5 5 6 60 30 21 76 63 94 100 100 100 100
38 31 5 5 5 5 1 0 0 5 5 5 5 5 5 39 37 90 100 100 100 100 94 33 24 21 5 5 5 5 5 5 24 98 88 92 87 86 96 100 100 100 100 100
7 69 5 5 5 5 5 5 4 4 5 23 26 5 12 20 7 97 96 19 5 5 5 6 58 46 21 16 9 5 0 0 1 0 5 4 0 2 15 97 100 100 100 100
5 67 63 5 5 5 5 5 5 5 5 5 10 5 5 5 5 5 5 5 5 5 6 48 51 18 5 4 0 0 0 0 0 0 2 5 5 5 5 0 3 7 36 30
5 5 28 20 28 6 5 5 5 5 5 5 18 5 5 14 20 34 5 6 54 92 64 55 5 5 4 3 5 1 0 0 1 5 5 5 5 5 5 5 4 2 3 5
5 5 6 5 5 5 5 5 5 5 26 34 62 5 96 14 87 82 81 33 44 5 5 5 5 8 5 10 70 1 2 5 5 5 4 1 1 0 0 0 0 5 5 5
5 5 5 5 5 5 5 5 7 90 99 86 92 22 46 28 95 68 61 67 90 35 5 3 5 5 5 66 2 5 27 5 8 5 0 0 0 0 0 5 5 5 5 5
5 5 3 5 5 5 5 5 7 97 100 100 10 35 5 62 54 30 40 24 5 5 5 5 5 82 5 3 5 5 5 5 5 0 0 0 0 3 5 5 5 6 50 67
5 5 2 1 4 5 5 5 23 35 9 4 74 8 96 16 31 9 5 10 5 5 3 4 5 10 18 5 5 5 9 2 0 0 0 2 5 5 5 9 58 98 100 100
5 12 12 5 5 1 5 17 65 5 61 18 31 93 91 43 46 21 48 72 15 5 4 5 19 6 20 5 5 5 5 0 0 0 3 5 5 5 19 80 99 100 100 100
5 36 99 100 9 5 96 100 89 27 18 6 54 98 65 92 71 60 51 5 5 5 5 72 99 18 5 5 0 5 5 0 0 5 5 5 5 40 88 100 100 100 100 100
16 16 40 46 64 95 100 100 100 100 100 100 99 87 43 33 5 10 5 7 25 15 28 79 5 2 5 4 0 3 0 0 0 5 5 5 29 99 100 100 100 100 100 100
100 100 100 72 100 99 100 100 92 93 71 69 29 7 5 5 5 5 5 32 79 89 30 3 4 2 5 0 0 0 0 0 5 5 5 10 93 100 100 100 100 100 100 100
95 100 100 94 100 76 56 14 5 5 5 5 5 5 5 6 5 5 16 20 5 5 5 5 0 4 0 0 0 0 0 5 5 5 53 94 100 100 100 100 100 100 100 100
100 100 100 100 93 73 79 81 100 94 40 97 26 73 5 5 5 5 5 5 34 9 5 2 0 0 0 0 0 0 5 5 5 64 100 100 100 100 100 100 100 100 100 100
100 100 100 100 100 100 100 68 100 84 87 14 49 46 19 8 5 5 5 5 12 20 5 5 0 0 0 0 0 5 5 5 27 91 100 100 100 100 100 100 100 100 100 100
100 100 100 100 100 100 100 100 82 77 8 15 5 5 15 35 5 12 59 66 28 6 7 8 0 5 0 0 4 5 5 5 70 100 100 100 100 100 100 100 100 100 100 100
100 100 100 100 100 100 100 100 100 100 100 75 58 54 34 13 92 30 28 47 5 5 5 0 5 5 0 0 3 5 5 29 100 100 100 100 100 100 100 100 100 100 100 100
100 100 100 100 100 100 100 100 100 100 100 100 100 96 21 32 25 55 98 9 5 4 3 5 5 5 5 0 5 5 5 95 100 100 100 100 100 100 100 100 100 100 100 100
100 100 100 100 100 100 100 100 100 100 100 100 100 64 100 94 42 82 12 14 5 4 5 5 5 5 5 5 5 5 6 100 100 100 100 100 100 100 100 100 100 100 100 100
100 100 100 100 100 100 100 100 100 100 100 100 100 100 100 100 96 79 6 5 5 93 5 5 5 5 5 5 5 5 14 100 100 100 100 100 100 100 100 100 100 100 100 100